Location: A�t Lahcen
(32.8243°N, 5.4246°W)
Time: 01:10:12
(UTC+00:00)

Meteor PRIRODA - Pass Details

Date: 27 January 2021
Orbit: 490 x 509 km, 97.6° (Epoch: 27 February)

Event Time Altitude Azimuth Distance (km) Brightness Sun altitude
Rises 05:31:12 0° 14° (NNE) 2,569 7.3 -22.8°
Reaches altitude 10° 05:33:18 10° 18° (NNE) 1,684 6.4 -22.4°
Maximum altitude 05:36:54 67° 100° (E) 537 3.9 -21.7°
Drops below altitude 10° 05:40:29 10° 184° (S) 1,679 6.3 -20.9°
Sets 05:42:33 0° 187° (S) 2,559 7.3 -20.5°
